• En Estados Unidos
  • Lista de países
  • Para 7 días
  • Temperatura del agua
  • Mapa Satelital
  • El tiempo en el mapa
  • Informadores
  • user-avatar
    Iniciar sesión

    Tiempo cada hora Annaba

    Hoy, 17 Enero, Miércoles

    Tiempo Temperatura Precipitaciones Viento Presión Humedad
    00:00 +11°C° 0 mm 4 mps 765 mmHg 74%
    01:00 +11°C° 0 mm 4 mps 765 mmHg 71%
    02:00 +11°C° 0 mm 4 mps 764 mmHg 70%
    03:00 +11°C° 0 mm 4 mps 764 mmHg 68%
    04:00 +11°C° 0 mm 4 mps 764 mmHg 67%
    05:00 +11°C° 0 mm 4 mps 763 mmHg 64%
    06:00 +11°C° 0 mm 4 mps 763 mmHg 62%
    07:00 +10°C° 0 mm 5 mps 763 mmHg 58%
    08:00 +12°C° 0 mm 5 mps 763 mmHg 54%
    09:00 +14°C° 0 mm 5 mps 763 mmHg 51%
    10:00 +16°C° 0 mm 5 mps 763 mmHg 48%
    11:00 +17°C° 0 mm 6 mps 763 mmHg 48%
    12:00 +18°C° 0 mm 7 mps 763 mmHg 48%
    13:00 +18°C° 0 mm 8 mps 763 mmHg 48%
    14:00 +18°C° 0 mm 8 mps 763 mmHg 55%
    15:00 +17°C° 0 mm 8 mps 763 mmHg 62%
    16:00 +16°C° 0 mm 8 mps 763 mmHg 69%
    17:00 +15°C° 0,1 mm 7 mps 764 mmHg 76%
    18:00 +14°C° 0,1 mm 6 mps 765 mmHg 83%
    19:00 +13°C° 0,1 mm 5 mps 765 mmHg 90%
    20:00 +13°C° 0,1 mm 5 mps 766 mmHg 88%
    21:00 +13°C° 0,1 mm 4 mps 766 mmHg 87%
    22:00 +13°C° 0,1 mm 4 mps 767 mmHg 85%
    23:00 +12°C° 0 mm 4 mps 767 mmHg 85%

    Mañana, 18 Enero, Jueves

    Tiempo Temperatura Precipitaciones Viento Presión Humedad
    00:00 +12°C° 0 mm 3 mps 767 mmHg 84%
    01:00 +12°C° 0 mm 3 mps 768 mmHg 84%
    02:00 +12°C° 0 mm 2 mps 768 mmHg 84%
    03:00 +12°C° 0 mm 2 mps 768 mmHg 84%
    04:00 +10°C° 0 mm 2 mps 767 mmHg 84%
    05:00 +10°C° 0 mm 2 mps 768 mmHg 84%
    06:00 +10°C° 0 mm 2 mps 768 mmHg 84%
    07:00 +9°C° 0 mm 2 mps 768 mmHg 84%
    08:00 +12°C° 0 mm 2 mps 768 mmHg 79%
    09:00 +13°C° 0 mm 2 mps 768 mmHg 74%
    10:00 +14°C° 0 mm 2 mps 768 mmHg 69%
    11:00 +15°C° 0 mm 1 mps 768 mmHg 64%
    12:00 +18°C° 0 mm 1 mps 767 mmHg 59%
    13:00 +19°C° 0 mm 1 mps 767 mmHg 54%
    14:00 +19°C° 0 mm 1 mps 766 mmHg 54%
    15:00 +18°C° 0 mm 2 mps 766 mmHg 54%
    16:00 +18°C° 0 mm 2 mps 765 mmHg 54%
    17:00 +16°C° 0 mm 3 mps 765 mmHg 61%
    18:00 +14°C° 0 mm 3 mps 765 mmHg 68%
    19:00 +12°C° 0 mm 3 mps 765 mmHg 75%
    20:00 +12°C° 0 mm 3 mps 765 mmHg 74%
    21:00 +12°C° 0 mm 3 mps 765 mmHg 74%
    22:00 +12°C° 0 mm 3 mps 764 mmHg 73%
    23:00 +12°C° 0 mm 2 mps 764 mmHg 72%

    Pasado mañana, 19 Enero, Viernes

    Tiempo Temperatura Precipitaciones Viento Presión Humedad
    00:00 +12°C° 0 mm 2 mps 764 mmHg 71%
    01:00 +12°C° 0 mm 2 mps 764 mmHg 71%
    02:00 +12°C° 0 mm 2 mps 763 mmHg 71%
    03:00 +12°C° 0 mm 2 mps 763 mmHg 71%
    04:00 +11°C° 0 mm 1 mps 762 mmHg 72%
    05:00 +11°C° 0 mm 1 mps 762 mmHg 72%
    06:00 +11°C° 0 mm 1 mps 762 mmHg 73%
    07:00 +11°C° 0 mm 1 mps 762 mmHg 74%
    08:00 +12°C° 0 mm 1 mps 762 mmHg 69%
    09:00 +14°C° 0 mm 1 mps 762 mmHg 64%
    10:00 +15°C° 0 mm 1 mps 762 mmHg 59%
    11:00 +18°C° 0 mm 1 mps 762 mmHg 55%
    12:00 +19°C° 0 mm 1 mps 761 mmHg 52%
    13:00 +20°C° 0 mm 1 mps 760 mmHg 49%
    14:00 +19°C° 0 mm 2 mps 760 mmHg 52%
    15:00 +18°C° 0 mm 3 mps 760 mmHg 56%
    16:00 +18°C° 0 mm 3 mps 759 mmHg 60%
    17:00 +16°C° 0 mm 3 mps 760 mmHg 69%
    18:00 +13°C° 0 mm 3 mps 760 mmHg 79%
    19:00 +12°C° 0 mm 3 mps 761 mmHg 88%
    20:00 +12°C° 0 mm 2 mps 761 mmHg 89%
    21:00 +12°C° 0 mm 2 mps 762 mmHg 89%
    22:00 +12°C° 0 mm 1 mps 762 mmHg 90%
    23:00 +12°C° 0 mm 1 mps 762 mmHg 91%

    20 Enero, Sábado

    Tiempo Temperatura Precipitaciones Viento Presión Humedad
    00:00 +11°C° 0 mm 1 mps 762 mmHg 91%
    01:00 +11°C° 0 mm 1 mps 762 mmHg 91%
    02:00 +10°C° 0,1 mm 2 mps 762 mmHg 91%
    03:00 +12°C° 0,1 mm 2 mps 762 mmHg 90%
    04:00 +12°C° 0,1 mm 2 mps 762 mmHg 90%
    05:00 +12°C° 0,1 mm 2 mps 762 mmHg 90%
    06:00 +11°C° 0,1 mm 3 mps 763 mmHg 91%
    07:00 +11°C° 0,1 mm 3 mps 763 mmHg 91%
    08:00 +12°C° 0,1 mm 3 mps 763 mmHg 87%
    09:00 +12°C° 0,1 mm 4 mps 764 mmHg 82%
    10:00 +13°C° 0,1 mm 4 mps 764 mmHg 78%
    11:00 +13°C° 0,1 mm 4 mps 764 mmHg 77%
    12:00 +13°C° 0,1 mm 4 mps 764 mmHg 76%
    13:00 +14°C° 0,1 mm 4 mps 763 mmHg 75%
    14:00 +13°C° 0,1 mm 4 mps 763 mmHg 75%
    15:00 +13°C° 0,1 mm 4 mps 763 mmHg 75%
    16:00 +13°C° 0,1 mm 4 mps 763 mmHg 75%
    17:00 +12°C° 0 mm 3 mps 763 mmHg 79%
    18:00 +11°C° 0 mm 3 mps 763 mmHg 83%
    19:00 +10°C° 0 mm 3 mps 764 mmHg 86%
    20:00 +10°C° 0 mm 4 mps 764 mmHg 87%
    21:00 +10°C° 0 mm 4 mps 764 mmHg 88%
    22:00 +9°C° 0 mm 5 mps 764 mmHg 89%
    23:00 +9°C° 0 mm 6 mps 764 mmHg 88%

    21 Enero, Domingo

    Tiempo Temperatura Precipitaciones Viento Presión Humedad
    00:00 +9°C° 0 mm 7 mps 763 mmHg 87%
    01:00 +9°C° 0 mm 8 mps 763 mmHg 85%
    02:00 +9°C° 0 mm 8 mps 763 mmHg 85%
    03:00 +9°C° 0 mm 8 mps 763 mmHg 85%
    04:00 +9°C° 0 mm 8 mps 762 mmHg 85%
    05:00 +10°C° 0 mm 8 mps 762 mmHg 83%
    06:00 +10°C° 0 mm 9 mps 762 mmHg 80%
    07:00 +10°C° 0 mm 9 mps 762 mmHg 78%
    08:00 +11°C° 0 mm 9 mps 763 mmHg 77%
    09:00 +12°C° 0 mm 10 mps 763 mmHg 77%
    10:00 +14°C° 0 mm 10 mps 763 mmHg 77%
    11:00 +14°C° 0,3 mm 11 mps 763 mmHg 79%
    12:00 +14°C° 0,3 mm 11 mps 763 mmHg 80%
    13:00 +14°C° 0,3 mm 11 mps 763 mmHg 82%
    14:00 +14°C° 0,3 mm 11 mps 764 mmHg 83%
    15:00 +14°C° 0,3 mm 11 mps 764 mmHg 84%
    16:00 +14°C° 0,3 mm 10 mps 764 mmHg 85%
    17:00 +13°C° 0,1 mm 10 mps 764 mmHg 86%
    18:00 +13°C° 0,1 mm 10 mps 765 mmHg 88%
    19:00 +12°C° 0,1 mm 10 mps 765 mmHg 89%
    20:00 +12°C° 0 mm 9 mps 766 mmHg 89%
    21:00 +12°C° 0 mm 8 mps 767 mmHg 89%
    22:00 +12°C° 0 mm 8 mps 767 mmHg 89%
    23:00 +12°C° 0 mm 7 mps 767 mmHg 90%

    22 Enero, Lunes

    Tiempo Temperatura Precipitaciones Viento Presión Humedad
    00:00 +11°C° 0 mm 7 mps 768 mmHg 90%
    01:00 +11°C° 0 mm 6 mps 768 mmHg 91%
    02:00 +13°C° 0 mm 6 mps 768 mmHg 91%
    03:00 +13°C° 0 mm 6 mps 768 mmHg 91%
    04:00 +13°C° 0 mm 6 mps 768 mmHg 92%
    05:00 +13°C° 0,1 mm 5 mps 768 mmHg 92%
    06:00 +13°C° 0,1 mm 5 mps 768 mmHg 93%
    07:00 +13°C° 0,1 mm 5 mps 768 mmHg 93%
    08:00 +13°C° 0,2 mm 5 mps 768 mmHg 93%
    09:00 +13°C° 0,2 mm 5 mps 769 mmHg 92%
    10:00 +14°C° 0,2 mm 5 mps 769 mmHg 91%
    11:00 +14°C° 0,1 mm 5 mps 769 mmHg 87%
    12:00 +15°C° 0,1 mm 5 mps 768 mmHg 84%
    13:00 +15°C° 0,1 mm 6 mps 768 mmHg 80%
    14:00 +16°C° 0 mm 6 mps 768 mmHg 77%
    15:00 +16°C° 0 mm 6 mps 768 mmHg 74%
    16:00 +16°C° 0 mm 6 mps 768 mmHg 72%
    17:00 +15°C° 0 mm 5 mps 768 mmHg 77%
    18:00 +14°C° 0 mm 5 mps 768 mmHg 83%
    19:00 +13°C° 0 mm 4 mps 768 mmHg 88%
    20:00 +12°C° 0 mm 4 mps 768 mmHg 89%
    21:00 +12°C° 0 mm 4 mps 768 mmHg 90%
    22:00 +12°C° 0 mm 4 mps 768 mmHg 90%
    23:00 +12°C° 0 mm 4 mps 768 mmHg 89%
    Mostrar más